Location: Trebic
(49.2170°N, 15.8830°E)
Time: 09:33:38
(UTC+02:00)

Courier 1B Rocket - Pass Details

Date: 29 August 2019
Orbit: 920 x 1202 km, 28.2° (Epoch: 16 October)

Event Time Altitude Azimuth Distance (km) Brightness Sun altitude
Rises 04:53:39 0° 239° (WSW) 3,861 - -11.9°
Exits shadow 04:58:14 - 212° (SSW) 3,037 7.0 -11.3°
Reaches altitude 10° 04:58:52 10° 207° (SSW) 2,980 7.0 -11.2°
Maximum altitude 05:00:53 11° 191° (S) 2,912 7.1 -10.9°
Drops below altitude 10° 05:02:55 10° 175° (S) 3,030 7.3 -10.6°
Sets 05:08:24 0° 144° (SE) 4,046 8.4 -9.8°
